Preview of NWS' New Version of Forecast
This preview is not operational and should not be used for support decisions.

Regional Weather Roundup (RWR)

Issued by National Weather Service (NWS)

                            
000
ASUS42 KFFC 200910
RWRGA 
WEATHER ROUNDUP FOR GEORGIA
NATIONAL WEATHER SERVICE PEACHTREE CITY GA
400 AM EST WED FEB 20 2019

NOTE: "FAIR" INDICATES FEW OR NO CLOUDS BELOW 12,000 FEET WITH NO
SIGNIFICANT WEATHER AND/OR OBSTRUCTIONS TO VISIBILITY. 

* = USE WITH CAUTION. THE STATIONS MARKED WITH AN ASTERISK MAY NOT
REPORT WEATHER SUCH AS PRECIPITATION, FOG, OR THUNDER AND ARE NOT 
QUALITY CONTROLLED BY NWS.

THE REMARK "TC" DENOTES TEMPERATURE READING IN DEGREES CELSIUS.

GAZ001>058-201000-
NORTH GEORGIA
  
CITY           SKY/WX    TMP DP  RH WIND       PRES   REMARKS
ATLANTA        DRIZZLE   40  38  93 E15G21    30.22F FOG     WCI  32  
ATHENS         CLOUDY    37  36  96 NE10      30.29F WCI  30          
CHAMBLEE       CLOUDY    37  36  96 VRB7      30.24F FOG     WCI  32  
PEACHTREE CITY CLOUDY    42  39  89 E10       30.22F FOG              
ROME           CLOUDY    41  37  86 SE10G20   30.18F                  
WEST ATLANTA   CLOUDY    40  39  97 E13       30.24S WCI  32          
GAINESVILLE    RAIN      35  35 100 E13G21    30.28F FOG     WCI  26  
CARTERSVILLE   CLOUDY    39  37  92 E13G24    30.21F FOG     WCI  31  

  
CITY           SKY/WX    TMP DP  RH WIND       PRES   REMARKS
DALTON*        CLOUDY    45  39  81 S9G21     30.16F                  
LAWRENCEVILLE* LGT RAIN  37  36  96 E17       30.25F FOG     WCI  27  
MARIETTA       LGT RAIN  37  36  93 E14       30.22F WCI  29          
KENNESAW*      RAIN      38  36  92 E13G23    30.24F WCI  30          
CANTON*        DRIZZLE  N/A N/A N/A E10G21    30.25S                  
BLAIRSVILLE*   LGT RAIN  42  38  88 E17G28    30.21R                  
$$

GAZ059>098-102>109-201000-
CENTRAL GEORGIA
  
CITY           SKY/WX    TMP DP  RH WIND       PRES   REMARKS
AUGUSTA-BUSH   CLOUDY    46  37  71 NE6       30.29F                  
AUGUSTA-DANIEL CLOUDY    45  35  68 NE9       30.28F                  
COLUMBUS       CLOUDY    44  42  93 E10       30.18F                  
MACON          CLOUDY    44  42  93 E13       30.23F                  
ROBINS AFB     CLOUDY    45  43  93 E3        30.22F                  

  
CITY           SKY/WX    TMP DP  RH WIND       PRES   REMARKS
LAGRANGE*      CLOUDY    44  44  98 E6        30.18F FOG              
SYLVANIA*      CLOUDY    45  43  93 E8        30.26F                  
MILLEDGEVILLE* CLOUDY    45  41  87 E7        30.26F                  
$$

GAZ099>101-110>166-201000-
SOUTH GEORGIA
  
CITY           SKY/WX    TMP DP  RH WIND       PRES   REMARKS
SAVANNAH       CLOUDY    48  47  96 NE7       30.23F FOG              
VALDOSTA       CLOUDY    51  49  92 E6        30.16F                  
ALMA           CLOUDY    50  46  86 VRB5      30.19F                  
ST SIMONS      CLOUDY    57  54  89 N16G25    30.16F                  
FT STEWART     LGT RAIN  48  47  96 NE7       30.20F                  
ALBANY         CLOUDY    51  46  83 E8        30.18F                  
HUNTER AFB     CLOUDY    52  48  87 NE9       30.19F                  
MOODY AFB      CLOUDY    50  50 100 NE7       30.14F                  
BRUNSWICK      CLOUDY    54  54 100 NE16G23   30.19F                  

  
CITY           SKY/WX    TMP DP  RH WIND       PRES   REMARKS
BAINBRIDGE*      N/A     54  50  87 MISG      30.13F                  
MOULTRIE*      CLOUDY    50  46  87 E6        30.16F                  
VIDALIA*       CLOUDY    46  41  81 NE8       30.22F                  
WAYCROSS*      CLOUDY    52  47  84 E8G16     30.17F                  
DOUGLAS*       CLOUDY    49  47  95 E10       30.20F                  
$$